Simultaneous Nadir Overpasses (SNOs) Predictions

Prediction of SNOs between GOES-17 and NOAA-19 Satellite Orbit:

Table of predicted SNOs for the next 14.0 days since TLE Epoch: 7/9/2022
Index Date Time (GOES-17) GOES-17 Lat,Lon NOAA-19 Lat,Lon Distance(km) Time Diff (sec)
1 07/09/2022 16:44:22 0.04,-137.26 -0.93,-133.21 462.52 80
2 07/11/2022 05:14:15 -0.04,-137.26 -0.93,-141.00 427.74 80
3 07/12/2022 05:02:25 -0.04,-137.27 -0.23,-138.12 97.36 80
4 07/13/2022 04:50:33 -0.04,-137.27 0.41,-135.22 232.85 80
5 07/15/2022 17:10:59 0.03,-137.28 0.66,-140.07 318.60 80
6 07/16/2022 17:01:48 0.02,-137.28 0.00,-137.18 11.44 80
7 07/17/2022 16:49:56 0.02,-137.28 -0.65,-134.28 341.49 80
8 07/20/2022 05:08:00 -0.01,-137.27 -0.47,-139.20 220.05 80
9 07/21/2022 04:56:09 -0.02,-137.27 0.19,-136.31 109.82 80
10 07/22/2022 04:44:17 -0.02,-137.27 0.85,-133.41 439.51 80
